This is the latest recevied weather packets stored in our database for station/object KY4EF. If no packets are shown the sender has not sent any weather packets the latest 10 day(s).
| Time | Temp. | Humidity | Pressure | Rain* | Wind** | Luminosity | Snow |
|---|---|---|---|---|---|---|---|
| 1777671651 | 18.89° C | 41% | 1011.2 hPa | 0 mm | - | 171 W/m² | - |
| 1777671348 | 18.89° C | 42% | 1011.2 hPa | 0 mm | - | 180 W/m² | - |
| 1777671044 | 19.44° C | 41% | 1011.2 hPa | 0 mm | - | 161 W/m² | - |
| 1777670740 | 20° C | 44% | 1011.3 hPa | 0 mm | - | 172 W/m² | - |
| 1777670438 | 20° C | 42% | 1011.4 hPa | 0 mm | - | 230 W/m² | - |
| 1777670134 | 20.56° C | 42% | 1011.1 hPa | 0 mm | - | 244 W/m² | - |
| 1777669832 | 21.11° C | 41% | 1011.2 hPa | 0 mm | - | 189 W/m² | - |
| 1777669528 | 20.56° C | 43% | 1011.2 hPa | 0 mm | - | 256 W/m² | - |
| 1777669225 | 20.56° C | 40% | 1011.2 hPa | 0 mm | - | 296 W/m² | - |
| 1777668922 | 20.56° C | 42% | 1011.1 hPa | 0 mm | - | 304 W/m² | - |
| 1777668620 | 20° C | 42% | 1011 hPa | 0 mm | - | 265 W/m² | - |
| 1777668315 | 20.56° C | 44% | 1011.1 hPa | 0 mm | - | 258 W/m² | - |
| 1777668011 | 20° C | 43% | 1011.2 hPa | 0 mm | - | 346 W/m² | - |
| 1777667709 | 20.56° C | 44% | 1011.4 hPa | 0 mm | - | 326 W/m² | - |
| 1777667406 | 20.56° C | 42% | 1011.3 hPa | 0 mm | - | 284 W/m² | - |
| 1777667103 | 20° C | 44% | 1011.4 hPa | 0 mm | - | 327 W/m² | - |
| 1777666799 | 20.56° C | 44% | 1011.3 hPa | 0 mm | - | 284 W/m² | - |
| 1777666496 | 20.56° C | 43% | 1011.2 hPa | 0 mm | - | 379 W/m² | - |
| 1777666193 | 20.56° C | 43% | 1011.2 hPa | 0 mm | - | 295 W/m² | - |
| 1777665890 | 20.56° C | 45% | 1011.5 hPa | 0 mm | - | 311 W/m² | - |
| 1777665588 | 20.56° C | 46% | 1011.5 hPa | 0 mm | - | 354 W/m² | - |
| 1777665284 | 20° C | 48% | 1011.5 hPa | 0 mm | - | 300 W/m² | - |
| 1777664980 | 20.56° C | 47% | 1011.6 hPa | 0 mm | - | 259 W/m² | - |
| 1777664676 | 21.11° C | 48% | 1011.6 hPa | 0 mm | - | 274 W/m² | - |
| 1777664372 | 22.22° C | 42% | 1011.6 hPa | 0 mm | - | 269 W/m² | - |
* Rain latest hour (hover to see other rain measurements)
** Current wind speed in m/s (hover to see current wind gust speed)